This is the latest recevied weather packets stored in our database for station/object KF0ZH. If no packets are shown the sender has not sent any weather packets the latest 10 day(s).
| Time | Temp. | Humidity | Pressure | Rain* | Wind** | Luminosity | Snow |
|---|---|---|---|---|---|---|---|
| 1788148508 | 75° F | 93% | 755 mmHg | 0 in | 7 mph, 153° | - | - |
| 1788148208 | 75° F | 92% | 755 mmHg | 0 in | 3 mph, 142° | - | - |
| 1788147908 | 76° F | 92% | 755 mmHg | 0 in | 3 mph, 202° | - | - |
| 1788147308 | 76° F | 92% | 754.9 mmHg | 0 in | 3 mph, 94° | - | - |
| 1788147008 | 76° F | 92% | 754.9 mmHg | 0 in | 4 mph, 147° | - | - |
| 1788146708 | 76° F | 91% | 755 mmHg | 0 in | 9 mph, 174° | - | - |
| 1788146408 | 76° F | 91% | 754.9 mmHg | 0 in | 4 mph, 178° | - | - |
| 1788146108 | 76° F | 91% | 754.9 mmHg | 0 in | 6 mph, 208° | - | - |
| 1788145508 | 76° F | 90% | 754.9 mmHg | 0 in | 8 mph, 199° | - | - |
| 1788145209 | 76° F | 89% | 754.9 mmHg | 0 in | 4 mph, 168° | - | - |
| 1788144908 | 76° F | 89% | 754.7 mmHg | 0 in | 7 mph, 182° | - | - |
| 1788144308 | 77° F | 88% | 754.7 mmHg | 0 in | 0 mph | - | - |
| 1788143708 | 77° F | 87% | 754.8 mmHg | 0 in | 6 mph, 196° | - | - |
| 1788143108 | 77° F | 86% | 754.8 mmHg | 0 in | 6 mph, 175° | - | - |
| 1788142813 | 77° F | 86% | 754.9 mmHg | 0 in | 4 mph, 170° | - | - |
| 1788142512 | 78° F | 85% | 754.9 mmHg | 0 in | 7 mph, 174° | - | - |
| 1788141619 | 78° F | 84% | 755 mmHg | 0 in | 3 mph, 119° | - | - |
| 1788141308 | 78° F | 84% | 755 mmHg | 0 in | 5 mph, 175° | - | - |
| 1788141009 | 79° F | 84% | 755 mmHg | 0 in | 3 mph, 151° | - | - |
| 1788140713 | 79° F | 83% | 754.9 mmHg | 0 in | 0 mph | - | - |
| 1788140111 | 79° F | 82% | 755.1 mmHg | 0 in | 3 mph, 184° | - | - |
| 1788139809 | 79° F | 81% | 755 mmHg | 0 in | 5 mph, 171° | - | - |
| 1788139510 | 79° F | 80% | 754.9 mmHg | 0 in | 7 mph, 181° | - | - |
| 1788139213 | 80° F | 80% | 754.9 mmHg | 0 in | 6 mph, 175° | - | - |
| 1788138308 | 81° F | 76% | 754.7 mmHg | 0 in | 7 mph, 177° | - | - |
* Rain latest hour (hover to see other rain measurements)
** Current wind speed in m/s (hover to see current wind gust speed)